Weather History for KCLK - April, 2014

Change the Weather History Date:

Thursday, April 24, 2014

  Actual Average (KCSM) Record (KCSM)
Temperature  
Mean Temperature 65 °F -  
Max Temperature 75 °F 70 °F 91 °F (2008)
Min Temperature 55 °F 48 °F 26 °F (2013)
Growing Degree Days 15 (Base 50)    
Moisture  
Dew Point 40 °F    
Average Humidity 45    
Maximum Humidity 88    
Minimum Humidity 13    
Precipitation  
Precipitation 0.00 in - - ()
Sea Level Pressure  
Sea Level Pressure 29.81 in    
Wind  
Wind Speed 18 mph (North)    
Max Wind Speed 28 mph    
Max Gust Speed 39 mph    
Visibility 10 miles    
Events      
Averages and records for this station are not official NWS values.
T = Trace of Precipitation, MM = Missing Value Source: NWS Daily Summary

Daily Weather History Graph

Daily Weather History Graph

Search for Another Location

Airport or City:

Trip Planner

Search our weather history database for the weather conditions in past years. The results will help you decide how hot, cold, wet, or windy it might be!

Date:

Astronomy

Apr. 24, 2014 Rise Set
Actual Time 6:51 AM CDT 8:16 PM CDT
Civil Twilight 6:25 AM CDT 8:43 PM CDT
Nautical Twilight 5:53 AM CDT 9:15 PM CDT
Astronomical Twilight 5:19 AM CDT 9:49 PM CDT
Moon 3:53 AM CDT (4/24) 3:43 PM CDT (4/24)
Length of Visible Light 14h 18m
Length of Day
13h 24m
Waning Crescent, 24% of the Moon is Illuminated
Apr 24
Waning Crescent
Apr 29
New
May 6
First Quarter
May 14
Full
May 21
Last Quarter

Hourly Weather History & Observations

Time (CDT) Temp. Dew Point Humidity Pressure Visibility Wind Dir Wind Speed Gust Speed Precip Events Conditions
12:15 AM 66.2 °F 55.4 °F 68% 29.66 in 10.0 mi SE 23.0 mph 32.2 mph N/A   Clear
12:35 AM 64.4 °F 55.4 °F 73% 29.66 in 10.0 mi SE 21.9 mph 28.8 mph N/A   Scattered Clouds
12:55 AM 64.4 °F 55.4 °F 73% 29.66 in 10.0 mi SE 24.2 mph 28.8 mph N/A   Clear
1:15 AM 64.4 °F 55.4 °F 73% 29.64 in 10.0 mi SE 23.0 mph 29.9 mph N/A   Clear
1:35 AM 64.4 °F 55.4 °F 73% 29.64 in 10.0 mi SSE 20.7 mph 27.6 mph N/A   Clear
1:55 AM 64.4 °F 55.4 °F 73% 29.62 in 10.0 mi SE 19.6 mph 27.6 mph N/A   Clear
2:15 AM 64.4 °F 55.4 °F 73% 29.61 in 10.0 mi SSE 21.9 mph 25.3 mph N/A   Clear
2:35 AM 64.4 °F 55.4 °F 73% 29.60 in 10.0 mi SSE 19.6 mph 26.5 mph N/A   Clear
2:55 AM 64.4 °F 57.2 °F 77% 29.60 in 10.0 mi SSE 19.6 mph - N/A   Clear
3:15 AM 62.6 °F 57.2 °F 82% 29.60 in 10.0 mi SSE 18.4 mph 21.9 mph N/A   Clear
3:35 AM 64.4 °F 57.2 °F 77% 29.60 in 10.0 mi SSE 16.1 mph 21.9 mph N/A   Clear
3:55 AM 64.4 °F 57.2 °F 77% 29.61 in 10.0 mi South 16.1 mph - N/A   Clear
4:15 AM 64.4 °F 57.2 °F 77% 29.61 in 10.0 mi South 16.1 mph - N/A   Clear
4:35 AM 64.4 °F 57.2 °F 77% 29.62 in 10.0 mi South 11.5 mph 18.4 mph N/A   Clear
4:55 AM 64.4 °F 57.2 °F 77% 29.63 in 10.0 mi South 13.8 mph - N/A   Clear
5:15 AM 64.4 °F 57.2 °F 77% 29.63 in 10.0 mi South 13.8 mph - N/A   Clear
5:35 AM 62.6 °F 57.2 °F 82% 29.63 in 10.0 mi South 12.7 mph - N/A   Clear
5:55 AM 64.4 °F 57.2 °F 77% 29.64 in 10.0 mi SSW 13.8 mph - N/A   Scattered Clouds
6:15 AM 62.6 °F 59.0 °F 88% 29.66 in 10.0 mi SW 9.2 mph - N/A   Overcast
6:35 AM 62.6 °F 57.2 °F 82% 29.65 in 10.0 mi Calm Calm - N/A   Mostly Cloudy
6:55 AM 62.6 °F 57.2 °F 82% 29.66 in 10.0 mi NNE 3.5 mph - N/A   Scattered Clouds
7:15 AM 59.0 °F 50.0 °F 72% 29.67 in 10.0 mi North 18.4 mph 24.2 mph N/A   Scattered Clouds
7:35 AM 57.2 °F 50.0 °F 77% 29.73 in 10.0 mi NW 21.9 mph 26.5 mph N/A   Scattered Clouds
7:55 AM 55.4 °F 48.2 °F 77% 29.75 in 10.0 mi NW 21.9 mph 29.9 mph N/A   Mostly Cloudy
8:15 AM 55.4 °F 46.4 °F 72% 29.76 in 10.0 mi NNW 18.4 mph 29.9 mph N/A   Scattered Clouds
8:35 AM 59.0 °F 46.4 °F 63% 29.79 in 10.0 mi NNW 23.0 mph 29.9 mph N/A   Clear
8:55 AM 59.0 °F 46.4 °F 63% 29.80 in 10.0 mi NW 24.2 mph 33.4 mph N/A   Clear
9:15 AM 60.8 °F 44.6 °F 55% 29.81 in 10.0 mi NNW 24.2 mph 36.8 mph N/A   Clear
9:55 AM 62.6 °F 37.4 °F 39% 29.83 in 10.0 mi NW 27.6 mph 38.0 mph N/A   Clear
10:15 AM 64.4 °F 35.6 °F 34% 29.84 in 10.0 mi NW 27.6 mph 39.1 mph N/A   Clear
10:55 AM 66.2 °F 32.0 °F 28% 29.85 in 10.0 mi NNW 25.3 mph 34.5 mph N/A   Clear
11:15 AM 68.0 °F 32.0 °F 26% 29.85 in 10.0 mi NNW 25.3 mph 33.4 mph N/A   Clear
11:35 AM 68.0 °F 32.0 °F 26% 29.85 in 10.0 mi NNW 25.3 mph 34.5 mph N/A   Clear
11:55 AM 69.8 °F 32.0 °F 25% 29.87 in 10.0 mi NNW 26.5 mph 35.7 mph N/A   Clear
12:15 PM 68.0 °F 32.0 °F 26% 29.88 in 10.0 mi NNW 27.6 mph 36.8 mph N/A   Clear
12:35 PM 69.8 °F 33.8 °F 27% 29.89 in 10.0 mi North 19.6 mph 35.7 mph N/A   Clear
12:55 PM 69.8 °F 32.0 °F 25% 29.89 in 10.0 mi NNW 24.2 mph 33.4 mph N/A   Clear
1:15 PM 69.8 °F 32.0 °F 25% 29.89 in 10.0 mi North 25.3 mph 35.7 mph N/A   Clear
1:35 PM 69.8 °F 32.0 °F 25% 29.90 in 10.0 mi NW 25.3 mph 34.5 mph N/A   Clear
1:55 PM 71.6 °F 32.0 °F 23% 29.90 in 10.0 mi NNW 23.0 mph 28.8 mph N/A   Clear
2:15 PM 71.6 °F 30.2 °F 22% 29.90 in 10.0 mi NNW 26.5 mph 33.4 mph N/A   Clear
2:35 PM 71.6 °F 30.2 °F 22% 29.90 in 10.0 mi North 25.3 mph 28.8 mph N/A   Clear
2:55 PM 71.6 °F 30.2 °F 22% 29.90 in 10.0 mi NNW 20.7 mph 27.6 mph N/A   Clear
3:15 PM 71.6 °F 30.2 °F 22% 29.91 in 10.0 mi NW 18.4 mph 23.0 mph N/A   Clear
3:35 PM 71.6 °F 28.4 °F 20% 29.90 in 10.0 mi NNW 16.1 mph 26.5 mph N/A   Clear
3:55 PM 73.4 °F 28.4 °F 19% 29.88 in 10.0 mi NW 19.6 mph 25.3 mph N/A   Clear
4:15 PM 75.2 °F 30.2 °F 19% 29.89 in 10.0 mi NNW 20.7 mph 29.9 mph N/A   Clear
4:35 PM 73.4 °F 23.0 °F 15% 29.89 in 10.0 mi NNW 21.9 mph 26.5 mph N/A   Clear
4:55 PM 73.4 °F 21.2 °F 14% 29.89 in 10.0 mi NW 15.0 mph 26.5 mph N/A   Clear
5:15 PM 73.4 °F 19.4 °F 13% 29.89 in 10.0 mi WNW 17.3 mph 26.5 mph N/A   Clear
5:35 PM 73.4 °F 21.2 °F 14% 29.90 in 10.0 mi NW 15.0 mph 20.7 mph N/A   Clear
5:55 PM 73.4 °F 21.2 °F 14% 29.90 in 10.0 mi WNW 13.8 mph 21.9 mph N/A   Clear
6:15 PM 71.6 °F 21.2 °F 15% 29.91 in 10.0 mi NW 16.1 mph 20.7 mph N/A   Clear
6:35 PM 73.4 °F 23.0 °F 15% 29.91 in 10.0 mi NW 11.5 mph - N/A   Clear
6:55 PM 71.6 °F 23.0 °F 16% 29.91 in 10.0 mi NNW 9.2 mph - N/A   Clear
7:15 PM 71.6 °F 23.0 °F 16% 29.91 in 10.0 mi North 9.2 mph - N/A   Clear
7:35 PM 71.6 °F 23.0 °F 16% 29.91 in 10.0 mi NNW 5.8 mph - N/A   Clear
7:55 PM 69.8 °F 30.2 °F 23% 29.91 in 10.0 mi Calm Calm - N/A   Clear
8:15 PM 68.0 °F 30.2 °F 24% 29.92 in 10.0 mi ENE 3.5 mph - N/A   Clear
8:35 PM 68.0 °F 26.6 °F 21% 29.92 in 10.0 mi East 3.5 mph - N/A   Clear
8:55 PM 66.2 °F 28.4 °F 24% 29.93 in 10.0 mi East 3.5 mph - N/A   Clear
9:15 PM 64.4 °F 30.2 °F 28% 29.93 in 10.0 mi East 5.8 mph - N/A   Clear
9:35 PM 60.8 °F 33.8 °F 36% 29.94 in 10.0 mi East 6.9 mph - N/A   Clear
9:55 PM 60.8 °F 33.8 °F 36% 29.95 in 10.0 mi East 6.9 mph - N/A   Clear
10:15 PM 59.0 °F 35.6 °F 42% 29.96 in 10.0 mi East 8.1 mph - N/A   Scattered Clouds
10:35 PM 55.4 °F 35.6 °F 47% 29.96 in 10.0 mi East 6.9 mph - N/A   Scattered Clouds
10:55 PM 55.4 °F 35.6 °F 47% 29.96 in 10.0 mi ESE 5.8 mph - N/A   Clear
11:15 PM 55.4 °F 35.6 °F 47% 29.97 in 10.0 mi SSE 5.8 mph - N/A   Clear
11:35 PM 55.4 °F 35.6 °F 47% 29.97 in 10.0 mi SSE 4.6 mph - N/A   Scattered Clouds
11:55 PM 55.4 °F 35.6 °F 47% 29.96 in 10.0 mi SE 5.8 mph - N/A   Clear